Вернуться в каталог

STARLINK-11530

АктивенСвязьVLEO
NORAD 62562·PAYLOAD·🇺🇸 United States

Запущен Jan 10, 2025 с Cape Canaveral Space Force Station

Loading…

Ближайшие Пролёты (ближайшие 24 часа)

TLE

СвежийSource: CelesTrak SupGP

Эпоха: Sep 15, 2026, 02:22 UTC

1 62562C 25006J   26258.09909722  .00032363  00000+0  25115-3 0  2586
2 62562  43.0006  78.5784 0001639 275.1082 217.4194 15.70842571    18

Отслеживайте STARLINK-11530 в реальном времени с AllMySat

Download on the App Store